カタログに戻る

GLOBALSTAR M086

運用中通信LEO
NORAD 38045·PAYLOAD·🇺🇸 United States

打ち上げ Dec 28, 2011 から Baikonur Cosmodrome

Loading…

次のパス (今後24時間)

TLE

最新Source: Space-Track

元期: Sep 14, 2026, 10:53 UTC

1 38045U 11080F   26257.45363696 -.00000112  00000-0 -44225-4 0  9991
2 38045  51.9898  56.5467 0000592 212.2947 165.9360 12.62289065680935

AllMySatでGLOBALSTAR M086をリアルタイム追跡

Download on the App Store